SCP
0 0 0 0 0 0 0 0 0 0 0 0 0 0 0 0 0 0 0 0 0 0 0 0 0 0 0 0 0 0 0 0 0 0 0 0 0 0 0 0 0 0 0 0
0 0 0 0 0 0 0 0 0 0 0 0 0 0 0 0 0 0 0 0 0 0 0 0 0 0 0 0 0 0 0 0 0 0 0 0 0 0 0 0 0 0 0 0
0 0 0 0 0 0 0 0 0 0 0 0 0 0 0 0 0 0 0 0 0 0 0 0 0 0 0 0 0 0 0 0 0 0 0 0 0 0 0 0 0 0 0 0
0 0 0 0 0 0 0 0 0 0 0 0 0 0 0 0 0 0 0 0 0 0 0 0 0 0 0 0 0 0 0 0 0 0 0 0 0 0 0 0 0 0 0 0
0 0 0 0 0 0 0 0 0 0 0 0 0 0 0 0 0 0 0 0 0 0 0 0 0 0 0 0 0 0 0 0 0 0 0 0 0 0 0 0 0 0 0 0
0 0 0 0 0 0 0 0 0 0 0 0 0 0 0 0 0 0 0 0 0 0 0 0 0 0 0 0 0 0 0 0 0 0 0 0 0 0 0 0 0 0 0 0
0 0 0 0 0 0 0 0 0 0 0 0 0 0 0 0 0 0 0 0 0 0 0 0 0 0 0 0 0 0 0 0 0 0 0 0 0 0 0 0 0 0 0 0
0 0 0 0 0 0 0 0 0 0 0 0 0 0 0 0 0 0 0 0 0 0 0 0 0 0 0 0 0 0 0 0 0 0 0 0 0 0 0 0 0 0 0 0
0 0 0 0 0 0 0 0 0 0 0 0 0 0 0 0 0 0 0 0 0 0 0 0 0 0 0 0 0 0 0 0 0 0 0 0 0 0 0 0 0 0 0 0
0 0 0 0 0 0 0 0 0 0 0 0 0 0 0 0 0 0 0 0 0 0 0 0 0 0 0 0 0 0 0 0 0 0 0 0 0 0 0 0 0 0 0 0
0 0 0 0 0 0 0 0 0 0 0 0 0 0 0 0 0 0 0 0 0 0 0 0 0 0 0 0 0 0 0 0 0 0 0 0 0 0 0 0 0 0 0 0
0 0 0 0 0 0 0 0 0 0 0 0 0 0 0 0 0 0 0 0 0 0 0 0 0 0 0 0 0 0 0 0 0 0 0 0 0 0 0 0 0 0 0 0
0 0 0 0 0 0 0 0 0 0 0 0 0 0 0 0 0 0 0 0 0 0 0 0 0 0 0 0 0 0 0 0 0 0 0 0 0 0 0 0 0 0 0 0
0 0 0 0 0 0 0 0 0 0 0 0 0 0 0 0 0 0 0 0 0 0 0 0 0 0 0 0 0 0 0 0 0 0 0 0 0 0 0 0 0 0 0 0
0 0 0 0 0 0 0 0 0 0 0 0 0 0 0 0 0 0 0 0 0 0 0 0 0 0 0 0 0 0 0 0 0 0 0 0 0 0 0 0 0 0 0 0
0 0 0 0 0 0 0 0 0 0 0 0 0 0 0 0 0 0 0 0 0 0 0 0 0 0 0 0 0 0 0 0 0 0 0 0 0 0 0 0 0 0 0 0
0 0 0 0 0 0 0 0 0 0 0 0 0 0 0 0 0 0 0 0 0 0 0 0 0 0 0 0 0 0 0 0 0 0 0 0 0 0 0 0 0 0 0 0
0 0 0 0 0 0 0 0 0 0 0 0 0 0 0 0 0 0 0 0 0 0 0 0 0 0 0 0 0 0 0 0 0 0 0 0 0 0 0 0 0 0 0 0
0 0 0 0 0 0 0 0 0 0 0 0 0 0 0 0 0 0 0 0 0 0 0 0 0 0 0 0 0 0 0 0 0 0 0 0 0 0 0 0 0 0 0 0
0 0 0 0 0 0 0 0 0 0 0 0 0 0 0 0 0 0 0 0 0 0 0 0 0 0 0 0 0 0 0 0 0 0 0 0 0 0 0 0 0 0 0 0
0 0 0 0 0 0 0 0 0 0 0 0 0 0 0 0 0 0 0 0 0 0 0 0 0 0 0 0 0 0 0 0 0 0 0 0 0 0 0 0 0 0 0 0
0 0 0 0 0 0 0 0 0 0 0 0 0 0 0 0 0 0 0 0 0 0 0 0 0 0 0 0 0 0 0 0 0 0 0 0 0 0 0 0 0 0 0 0
0 0 0 0 0 0 0 0 0 0 0 0 0 0 0 0 0 0 0 0 0 0 0 0 0 0 0 0 0 0 0 0 0 0 0 0 0 0 0 0 0 0 0 0
0 0 0 0 0 0 0 0 0 0 0 0 0 0 0 0 0 0 0 0 0 0 0 0 0 0 0 0 0 0 0 0 0 0 0 0 0 0 0 0 0 0 0 0
0 0 0 0 0 0 0 0 0 0 0 0 0 0 0 0 0 0 0 0 0 0 0 0 0 0 0 0 0 0 0 0 0 0 0 0 0 0 0 0 0 0 0 0
0 0 0 0 0 0 0 0 0 0 0 0 0 0 0 0 0 0 0 0 0 0 0 0 0 0 0 0 0 0 0 0 0 0 0 0 0 0 0 0 0 0 0 0
0 0 0 0 0 0 0 0 0 0 0 0 0 0 0 0 0 0 0 0 0 0 0 0 0 0 0 0 0 0 0 0 0 0 0 0 0 0 0 0 0 0 0 0
Wind_Speed_500mb
41 12 18 29 32 32 36 51 24 47 45 42 34 11 32 48 46 39 43 43 57 67 69 69 67 67 65 65 63 61 61 61 59 56 52 50 47 42 38 35 32 30 28 25
23 18 15 11 31 46 55 52 37 47 45 25 19 24 35 36 26 31 38 41 43 60 71 74 71 75 76 73 72 69 65 62 60 58 55 52 48 43 38 35 33 30 29 27
29 16 12 17 42 40 39 45 49 41 55 49 38 24 42 50 60 72 70 69 62 63 65 69 72 75 82 84 82 75 69 64 61 60 57 52 47 43 39 36 34 32 30 28
17 13 29 31 32 33 40 29 38 33 42 45 42 48 43 57 67 64 62 62 64 65 66 68 70 73 83 89 83 77 73 67 62 58 54 51 47 43 40 38 36 33 31 28
16 28 7 9 13 37 33 49 37 37 52 71 70 27 56 75 67 68 65 63 61 60 63 63 63 68 73 79 80 80 77 70 62 55 52 49 46 44 41 39 36 34 31 28
13 22 22 36 16 21 13 15 34 56 47 41 38 11 32 64 49 46 43 47 48 47 46 50 55 58 67 74 78 81 76 65 56 52 51 50 47 44 41 38 35 32 29 25
24 9 12 16 14 49 20 21 37 41 64 62 24 45 61 41 34 35 30 34 39 40 42 47 49 51 57 64 69 70 63 58 55 50 46 43 41 40 38 34 32 30 28 25
15 19 25 8 10 25 18 6 38 23 39 54 64 74 75 66 59 48 35 34 37 39 40 39 43 46 51 56 61 59 54 52 51 50 49 47 43 38 34 31 30 27 27 27
11 8 25 39 27 33 21 29 35 28 33 35 47 53 43 44 43 39 35 37 41 42 37 37 41 46 49 51 50 50 48 48 48 46 42 41 41 38 33 27 30 28 27 26
9 17 25 54 55 38 36 37 40 49 53 37 40 45 54 50 44 44 45 45 42 43 44 44 45 46 47 48 47 46 45 44 45 43 41 38 34 30 25 30 30 27 28 28
8 14 9 27 38 45 42 45 49 42 46 47 41 44 43 48 52 53 51 48 45 45 46 46 46 47 46 45 45 45 44 43 43 40 37 32 31 30 33 31 29 27 33 33
9 6 16 29 41 34 35 42 45 48 55 55 56 56 54 55 51 52 53 51 49 47 47 47 46 44 43 42 42 41 42 42 40 38 36 36 32 30 26 29 33 33 33 35
37 53 42 61 60 55 53 50 51 56 57 53 52 52 50 49 48 48 50 52 50 47 42 42 43 43 42 40 39 39 42 43 45 46 32 29 28 30 29 32 30 34 36 38
58 56 45 64 54 54 55 51 49 51 54 55 55 55 53 51 50 50 49 47 43 42 41 41 43 44 42 41 43 45 47 46 37 29 32 30 23 31 32 35 35 36 39 40
63 61 69 65 57 57 50 51 60 59 57 56 54 52 50 51 53 47 40 41 41 41 42 43 45 46 45 48 48 46 42 36 32 33 28 28 33 36 36 37 37 37 38 39
39 43 45 56 58 56 56 54 55 57 53 53 52 49 43 37 39 39 38 40 42 45 44 43 42 41 42 41 40 37 33 33 33 29 33 33 32 34 36 37 37 37 37 39
57 61 63 64 63 64 63 58 56 55 49 44 38 37 37 35 38 39 37 38 36 36 35 36 38 40 40 38 35 33 34 32 32 33 30 31 33 34 36 39 40 42 39 39
49 53 55 58 58 52 47 47 47 47 45 39 38 39 37 36 37 35 35 34 36 37 36 36 37 38 37 36 36 34 31 32 31 29 31 31 33 38 40 41 42 44 42 40
35 38 40 41 40 40 37 32 31 32 34 34 35 33 30 28 29 29 32 36 38 39 39 40 40 39 37 36 34 33 32 31 29 30 33 36 37 38 40 43 44 46 47 46
33 33 33 33 34 35 33 29 27 26 25 26 27 32 34 34 35 35 36 36 32 31 33 35 36 35 35 35 33 31 30 31 32 34 35 36 37 39 42 44 46 48 47 47
37 36 33 33 34 35 33 31 27 22 23 26 28 30 31 33 35 35 37 36 33 35 34 34 33 32 32 32 31 31 32 32 33 34 36 38 40 41 43 44 46 48 48 49
39 38 32 31 31 31 29 26 25 25 26 26 28 29 31 32 33 34 33 30 36 35 34 32 31 32 32 32 31 30 31 33 35 37 38 38 41 43 45 46 47 47 49 50
40 34 31 28 27 25 22 21 23 23 22 23 24 27 29 27 29 33 34 34 35 34 33 32 32 30 28 28 29 32 34 35 36 38 39 41 44 47 48 48 48 49 50 51
38 33 29 28 26 25 23 21 22 22 23 26 26 27 28 29 31 33 33 31 31 31 29 29 27 28 30 30 31 33 34 36 39 40 42 45 47 48 49 50 51 50 52 54
38 33 30 28 26 23 23 22 24 26 26 27 28 29 30 31 31 28 30 28 28 28 29 29 29 30 29 28 31 34 36 39 41 44 46 48 49 49 50 52 53 54 56 58
34 30 27 27 25 24 23 24 22 22 25 27 28 28 28 30 30 29 29 31 32 31 31 31 29 29 29 29 32 35 39 41 44 47 49 50 51 53 54 55 56 58 60 62
33 33 31 30 27 25 24 23 22 21 22 23 23 24 27 29 30 32 34 33 32 31 32 32 32 31 31 32 35 39 43 46 48 51 52 53 54 55 56 57 59 62 64 66
Wind_Direction_500mb
238 203 196 204 204 208 208 224 204 242 240 242 246 254 260 275 286 277 266 257 243 242 245 246 246 244 245 247 247 247 246 246 246 246 246 247 247 247 247 248 248 249 250 246
247 211 195 201 207 207 214 224 233 250 261 245 252 236 247 245 231 240 257 257 257 255 252 250 254 255 253 250 249 246 246 246 244 244 244 243 242 241 240 239 236 235 237 238
238 187 185 231 218 206 217 221 218 232 244 259 258 231 235 246 255 260 264 267 271 268 265 262 261 263 259 254 246 243 243 242 242 241 241 240 239 237 235 233 232 230 230 234
228 158 220 231 218 203 210 222 218 244 253 254 254 255 252 254 254 261 270 268 271 271 270 271 271 265 258 252 245 242 241 241 241 240 239 238 237 235 233 230 229 228 228 231
238 215 289 290 207 194 193 231 220 223 244 253 261 279 272 264 263 263 264 268 273 276 276 276 274 268 261 254 246 242 241 240 240 241 240 238 234 231 228 226 226 227 227 229
237 204 205 228 197 178 101 240 216 215 237 250 257 248 264 271 267 264 261 262 264 266 268 276 277 266 255 249 242 239 238 239 241 241 240 237 234 230 226 223 223 224 226 227
253 228 280 256 157 140 169 227 244 205 224 236 234 233 254 271 271 271 253 253 260 265 269 275 273 265 254 247 241 238 236 236 235 234 233 231 228 225 224 225 225 228 232 237
234 237 241 132 86 169 207 194 256 207 224 233 250 260 255 266 268 269 261 266 269 270 265 262 262 258 248 240 237 235 234 235 235 230 226 223 221 219 216 218 222 230 236 245
191 223 207 200 253 232 247 249 255 261 272 259 256 256 258 265 268 267 266 268 271 267 259 262 257 252 243 238 234 233 231 229 227 225 220 215 212 212 217 221 232 237 246 253
116 238 240 246 249 256 259 261 268 268 267 245 240 257 269 269 265 266 272 270 265 256 256 254 250 243 236 234 232 230 228 225 222 219 214 213 213 209 218 231 233 239 251 259
259 278 348 281 263 266 272 269 261 254 264 263 258 257 261 267 271 274 270 264 258 257 256 251 246 242 239 236 232 228 223 220 215 209 204 202 215 225 224 227 237 251 259 263
242 219 211 263 282 278 265 265 273 271 266 263 262 263 261 260 260 261 260 258 256 256 250 246 244 241 238 234 229 223 216 208 202 198 205 218 220 226 233 253 259 260 267 272
246 266 266 279 285 283 285 286 279 272 272 274 272 267 265 262 258 256 254 253 254 251 249 244 240 235 229 224 219 211 203 198 198 209 209 212 216 246 252 250 258 263 267 269
254 272 276 271 281 290 288 281 281 279 274 268 264 263 263 262 260 254 253 256 250 245 239 235 230 227 221 216 206 202 201 203 206 202 209 230 234 240 248 256 262 266 269 270
263 266 273 275 270 271 279 278 275 270 265 263 259 256 256 258 256 254 246 243 239 234 229 224 221 219 214 211 210 206 206 206 206 220 222 226 235 243 251 259 262 262 263 270
294 286 279 281 284 287 287 279 274 273 273 270 267 264 257 249 248 244 239 234 230 230 226 219 216 212 208 206 207 206 206 213 215 221 228 234 243 251 257 262 266 270 273 275
294 294 295 292 291 291 285 281 273 270 265 261 261 257 252 244 237 233 226 223 222 221 221 211 203 199 200 201 205 210 214 217 224 229 237 245 251 258 265 270 271 269 270 271
283 281 280 280 284 285 281 278 270 262 259 256 248 244 243 241 239 232 222 215 206 200 199 198 198 200 203 206 210 212 217 224 231 238 245 254 261 263 266 268 271 275 278 276
286 281 276 274 273 275 276 276 269 261 255 250 240 236 231 222 224 220 214 207 206 203 198 197 200 203 207 209 213 217 224 233 242 249 254 257 261 265 269 272 274 277 278 276
295 285 276 270 268 269 274 266 253 243 239 235 230 222 218 213 212 210 210 212 211 208 205 206 208 208 211 216 221 227 235 242 247 252 258 263 267 270 272 273 275 276 276 276
296 288 281 269 267 270 270 268 256 249 243 237 231 235 232 225 218 213 212 210 205 207 206 207 208 213 219 226 230 237 243 249 255 262 266 271 273 273 274 276 278 279 279 279
295 288 279 268 267 271 271 262 246 234 234 231 229 223 224 226 224 222 217 214 210 208 209 212 214 218 224 232 239 247 254 260 264 265 269 273 276 278 279 280 279 278 278 281
287 278 266 261 266 265 260 251 238 231 228 227 226 227 226 226 224 220 215 209 209 211 212 214 219 226 235 246 254 259 262 264 268 272 277 280 281 282 283 282 281 281 282 284
293 278 263 260 261 259 255 248 240 236 230 221 217 219 223 220 214 212 212 214 213 214 216 221 232 242 249 255 260 265 268 272 275 278 280 281 281 282 282 283 283 285 286 287
288 268 258 256 259 261 255 250 244 240 238 236 230 226 223 219 215 217 220 220 222 224 227 233 239 247 256 262 266 270 274 277 280 281 283 284 285 284 284 285 286 288 288 289
284 269 260 257 256 249 248 249 252 250 246 240 236 234 230 226 224 223 226 226 227 231 236 239 246 254 261 267 272 276 280 283 286 287 287 287 286 285 286 287 287 288 289 290
277 266 259 260 264 266 267 260 256 260 257 253 247 241 236 233 232 231 233 234 237 240 242 245 250 256 265 273 280 285 287 287 287 288 287 287 286 286 287 288 288 289 290 291
Wind_Speed_850mb
41 12 18 29 32 32 36 51 24 47 45 42 34 11 32 48 46 39 43 43 57 67 69 69 67 67 65 65 63 61 61 61 59 56 52 50 47 42 38 35 32 30 28 25
23 18 15 11 31 46 55 52 37 47 45 25 19 24 35 36 26 31 38 41 43 60 71 74 71 75 76 73 72 69 65 62 60 58 55 52 48 43 38 35 33 30 29 27
29 16 12 17 42 40 39 45 49 41 55 49 38 24 42 50 60 72 70 69 62 63 65 69 72 75 82 84 82 75 69 64 61 60 57 52 47 43 39 36 34 32 30 28
17 13 29 31 32 33 40 29 38 33 42 45 42 48 43 57 67 64 62 62 64 65 66 68 70 73 83 89 83 77 73 67 62 58 54 51 47 43 40 38 36 33 31 28
16 28 7 9 13 37 33 49 37 37 52 71 70 27 56 75 67 68 65 63 61 60 63 63 63 68 73 79 80 80 77 70 62 55 52 49 46 44 41 39 36 34 31 28
13 22 22 36 16 21 13 15 34 56 47 41 38 11 32 64 49 46 43 47 48 47 46 50 55 58 67 74 78 81 76 65 56 52 51 50 47 44 41 38 35 32 29 25
24 9 12 16 14 49 20 21 37 41 64 62 24 45 61 41 34 35 30 34 39 40 42 47 49 51 57 64 69 70 63 58 55 50 46 43 41 40 38 34 32 30 28 25
15 19 25 8 10 25 18 6 38 23 39 54 64 74 75 66 59 48 35 34 37 39 40 39 43 46 51 56 61 59 54 52 51 50 49 47 43 38 34 31 30 27 27 27
11 8 25 39 27 33 21 29 35 28 33 35 47 53 43 44 43 39 35 37 41 42 37 37 41 46 49 51 50 50 48 48 48 46 42 41 41 38 33 27 30 28 27 26
9 17 25 54 55 38 36 37 40 49 53 37 40 45 54 50 44 44 45 45 42 43 44 44 45 46 47 48 47 46 45 44 45 43 41 38 34 30 25 30 30 27 28 28
8 14 9 27 38 45 42 45 49 42 46 47 41 44 43 48 52 53 51 48 45 45 46 46 46 47 46 45 45 45 44 43 43 40 37 32 31 30 33 31 29 27 33 33
9 6 16 29 41 34 35 42 45 48 55 55 56 56 54 55 51 52 53 51 49 47 47 47 46 44 43 42 42 41 42 42 40 38 36 36 32 30 26 29 33 33 33 35
37 53 42 61 60 55 53 50 51 56 57 53 52 52 50 49 48 48 50 52 50 47 42 42 43 43 42 40 39 39 42 43 45 46 32 29 28 30 29 32 30 34 36 38
58 56 45 64 54 54 55 51 49 51 54 55 55 55 53 51 50 50 49 47 43 42 41 41 43 44 42 41 43 45 47 46 37 29 32 30 23 31 32 35 35 36 39 40
63 61 69 65 57 57 50 51 60 59 57 56 54 52 50 51 53 47 40 41 41 41 42 43 45 46 45 48 48 46 42 36 32 33 28 28 33 36 36 37 37 37 38 39
39 43 45 56 58 56 56 54 55 57 53 53 52 49 43 37 39 39 38 40 42 45 44 43 42 41 42 41 40 37 33 33 33 29 33 33 32 34 36 37 37 37 37 39
57 61 63 64 63 64 63 58 56 55 49 44 38 37 37 35 38 39 37 38 36 36 35 36 38 40 40 38 35 33 34 32 32 33 30 31 33 34 36 39 40 42 39 39
49 53 55 58 58 52 47 47 47 47 45 39 38 39 37 36 37 35 35 34 36 37 36 36 37 38 37 36 36 34 31 32 31 29 31 31 33 38 40 41 42 44 42 40
35 38 40 41 40 40 37 32 31 32 34 34 35 33 30 28 29 29 32 36 38 39 39 40 40 39 37 36 34 33 32 31 29 30 33 36 37 38 40 43 44 46 47 46
33 33 33 33 34 35 33 29 27 26 25 26 27 32 34 34 35 35 36 36 32 31 33 35 36 35 35 35 33 31 30 31 32 34 35 36 37 39 42 44 46 48 47 47
37 36 33 33 34 35 33 31 27 22 23 26 28 30 31 33 35 35 37 36 33 35 34 34 33 32 32 32 31 31 32 32 33 34 36 38 40 41 43 44 46 48 48 49
39 38 32 31 31 31 29 26 25 25 26 26 28 29 31 32 33 34 33 30 36 35 34 32 31 32 32 32 31 30 31 33 35 37 38 38 41 43 45 46 47 47 49 50
40 34 31 28 27 25 22 21 23 23 22 23 24 27 29 27 29 33 34 34 35 34 33 32 32 30 28 28 29 32 34 35 36 38 39 41 44 47 48 48 48 49 50 51
38 33 29 28 26 25 23 21 22 22 23 26 26 27 28 29 31 33 33 31 31 31 29 29 27 28 30 30 31 33 34 36 39 40 42 45 47 48 49 50 51 50 52 54
38 33 30 28 26 23 23 22 24 26 26 27 28 29 30 31 31 28 30 28 28 28 29 29 29 30 29 28 31 34 36 39 41 44 46 48 49 49 50 52 53 54 56 58
34 30 27 27 25 24 23 24 22 22 25 27 28 28 28 30 30 29 29 31 32 31 31 31 29 29 29 29 32 35 39 41 44 47 49 50 51 53 54 55 56 58 60 62
33 33 31 30 27 25 24 23 22 21 22 23 23 24 27 29 30 32 34 33 32 31 32 32 32 31 31 32 35 39 43 46 48 51 52 53 54 55 56 57 59 62 64 66
Wind_Direction_850mb
238 203 196 204 204 208 208 224 204 242 240 242 246 254 260 275 286 277 266 257 243 242 245 246 246 244 245 247 247 247 246 246 246 246 246 247 247 247 247 248 248 249 250 246
247 211 195 201 207 207 214 224 233 250 261 245 252 236 247 245 231 240 257 257 257 255 252 250 254 255 253 250 249 246 246 246 244 244 244 243 242 241 240 239 236 235 237 238
238 187 185 231 218 206 217 221 218 232 244 259 258 231 235 246 255 260 264 267 271 268 265 262 261 263 259 254 246 243 243 242 242 241 241 240 239 237 235 233 232 230 230 234
228 158 220 231 218 203 210 222 218 244 253 254 254 255 252 254 254 261 270 268 271 271 270 271 271 265 258 252 245 242 241 241 241 240 239 238 237 235 233 230 229 228 228 231
238 215 289 290 207 194 193 231 220 223 244 253 261 279 272 264 263 263 264 268 273 276 276 276 274 268 261 254 246 242 241 240 240 241 240 238 234 231 228 226 226 227 227 229
237 204 205 228 197 178 101 240 216 215 237 250 257 248 264 271 267 264 261 262 264 266 268 276 277 266 255 249 242 239 238 239 241 241 240 237 234 230 226 223 223 224 226 227
253 228 280 256 157 140 169 227 244 205 224 236 234 233 254 271 271 271 253 253 260 265 269 275 273 265 254 247 241 238 236 236 235 234 233 231 228 225 224 225 225 228 232 237
234 237 241 132 86 169 207 194 256 207 224 233 250 260 255 266 268 269 261 266 269 270 265 262 262 258 248 240 237 235 234 235 235 230 226 223 221 219 216 218 222 230 236 245
191 223 207 200 253 232 247 249 255 261 272 259 256 256 258 265 268 267 266 268 271 267 259 262 257 252 243 238 234 233 231 229 227 225 220 215 212 212 217 221 232 237 246 253
116 238 240 246 249 256 259 261 268 268 267 245 240 257 269 269 265 266 272 270 265 256 256 254 250 243 236 234 232 230 228 225 222 219 214 213 213 209 218 231 233 239 251 259
259 278 348 281 263 266 272 269 261 254 264 263 258 257 261 267 271 274 270 264 258 257 256 251 246 242 239 236 232 228 223 220 215 209 204 202 215 225 224 227 237 251 259 263
242 219 211 263 282 278 265 265 273 271 266 263 262 263 261 260 260 261 260 258 256 256 250 246 244 241 238 234 229 223 216 208 202 198 205 218 220 226 233 253 259 260 267 272
246 266 266 279 285 283 285 286 279 272 272 274 272 267 265 262 258 256 254 253 254 251 249 244 240 235 229 224 219 211 203 198 198 209 209 212 216 246 252 250 258 263 267 269
254 272 276 271 281 290 288 281 281 279 274 268 264 263 263 262 260 254 253 256 250 245 239 235 230 227 221 216 206 202 201 203 206 202 209 230 234 240 248 256 262 266 269 270
263 266 273 275 270 271 279 278 275 270 265 263 259 256 256 258 256 254 246 243 239 234 229 224 221 219 214 211 210 206 206 206 206 220 222 226 235 243 251 259 262 262 263 270
294 286 279 281 284 287 287 279 274 273 273 270 267 264 257 249 248 244 239 234 230 230 226 219 216 212 208 206 207 206 206 213 215 221 228 234 243 251 257 262 266 270 273 275
294 294 295 292 291 291 285 281 273 270 265 261 261 257 252 244 237 233 226 223 222 221 221 211 203 199 200 201 205 210 214 217 224 229 237 245 251 258 265 270 271 269 270 271
283 281 280 280 284 285 281 278 270 262 259 256 248 244 243 241 239 232 222 215 206 200 199 198 198 200 203 206 210 212 217 224 231 238 245 254 261 263 266 268 271 275 278 276
286 281 276 274 273 275 276 276 269 261 255 250 240 236 231 222 224 220 214 207 206 203 198 197 200 203 207 209 213 217 224 233 242 249 254 257 261 265 269 272 274 277 278 276
295 285 276 270 268 269 274 266 253 243 239 235 230 222 218 213 212 210 210 212 211 208 205 206 208 208 211 216 221 227 235 242 247 252 258 263 267 270 272 273 275 276 276 276
296 288 281 269 267 270 270 268 256 249 243 237 231 235 232 225 218 213 212 210 205 207 206 207 208 213 219 226 230 237 243 249 255 262 266 271 273 273 274 276 278 279 279 279
295 288 279 268 267 271 271 262 246 234 234 231 229 223 224 226 224 222 217 214 210 208 209 212 214 218 224 232 239 247 254 260 264 265 269 273 276 278 279 280 279 278 278 281
287 278 266 261 266 265 260 251 238 231 228 227 226 227 226 226 224 220 215 209 209 211 212 214 219 226 235 246 254 259 262 264 268 272 277 280 281 282 283 282 281 281 282 284
293 278 263 260 261 259 255 248 240 236 230 221 217 219 223 220 214 212 212 214 213 214 216 221 232 242 249 255 260 265 268 272 275 278 280 281 281 282 282 283 283 285 286 287
288 268 258 256 259 261 255 250 244 240 238 236 230 226 223 219 215 217 220 220 222 224 227 233 239 247 256 262 266 270 274 277 280 281 283 284 285 284 284 285 286 288 288 289
284 269 260 257 256 249 248 249 252 250 246 240 236 234 230 226 224 223 226 226 227 231 236 239 246 254 261 267 272 276 280 283 286 287 287 287 286 285 286 287 287 288 289 290
277 266 259 260 264 266 267 260 256 260 257 253 247 241 236 233 232 231 233 234 237 240 242 245 250 256 265 273 280 285 287 287 287 288 287 287 286 286 287 288 288 289 290 291